VK2RZ Weather Reports


Display with metric or nautical units.
time (UTC)temp
F
wind
direction
speed
MPH
gust
MPH
rain 1hr
in
rain 24hr
in
rain mn
in
humidity
%
barometer
mb
20260506202056 51 0 0.0 0.0 0.00 0.00 0.00 8 1013.5
20260506201056 51 0 0.0 0.0 0.00 0.00 0.00 8 1013.6
20260506200056 51 0 0.0 0.0 0.00 0.00 0.00 8 1013.6
20260506195056 52 0 0.0 0.0 0.00 0.00 0.00 8 1013.7
20260506194055 52 0 0.0 0.0 0.00 0.00 0.00 8 1013.6
20260506193055 52 0 0.0 0.0 0.00 0.00 0.00 8 1013.5
20260506192055 52 0 0.0 0.0 0.00 0.00 0.00 8 1013.4
20260506191055 52 0 0.0 2.0 0.00 0.00 0.00 8 1013.3
20260506190055 52 0 0.0 0.0 0.00 0.00 0.00 8 1013.1
20260506185055 52 0 0.0 0.0 0.00 0.00 0.00 8 1012.9
20260506184055 52 0 0.0 0.0 0.00 0.00 0.00 8 1013.0
20260506183055 53 0 0.0 0.0 0.00 0.00 0.00 8 1013.0
20260506182055 53 0 0.0 0.0 0.00 0.00 0.00 8 1013.1
20260506181055 54 0 0.0 0.0 0.00 0.00 0.00 8 1012.9
20260506180055 54 272 1.0 4.0 0.00 0.00 0.00 8 1012.8
20260506175055 55 0 0.0 3.0 0.00 0.00 0.00 8 1012.8
20260506174055 54 303 2.0 4.0 0.00 0.00 0.00 8 1012.9
20260506173055 54 253 2.0 3.0 0.00 0.00 0.00 8 1013.1
20260506172055 54 250 3.0 4.0 0.00 0.00 0.00 8 1013.2
20260506171055 54 0 0.0 0.0 0.00 0.00 0.00 8 1013.0
20260506170055 55 0 0.0 0.0 0.00 0.00 0.00 8 1013.1
20260506165055 55 0 0.0 1.0 0.00 0.00 0.00 8 1013.2
20260506164055 56 0 0.0 0.0 0.00 0.00 0.00 8 1013.4
20260506163055 57 0 0.0 3.0 0.00 0.00 0.00 8 1013.4
20260506162055 57 0 0.0 3.0 0.00 0.00 0.00 8 1013.6
20260506161055 57 0 0.0 3.0 0.00 0.00 0.00 8 1013.7
20260506160055 57 249 1.0 2.0 0.00 0.00 0.00 8 1013.8
20260506155055 57 249 1.0 4.0 0.00 0.00 0.00 8 1013.8
20260506154055 58 264 2.0 4.0 0.00 0.00 0.00 8 1014.0
20260506153055 58 234 3.0 5.0 0.00 0.00 0.00 8 1014.0
20260506152055 58 272 4.0 5.0 0.00 0.00 0.00 8 1014.1
20260506151054 59 228 3.0 3.0 0.00 0.00 0.00 8 1014.1
20260506150054 59 243 4.0 5.0 0.00 0.00 0.00 8 1014.2
20260506145054 59 229 2.0 3.0 0.00 0.00 0.00 8 1014.2
20260506144053 59 0 0.0 0.0 0.00 0.00 0.00 8 1014.2
20260506143052 59 0 0.0 2.0 0.00 0.00 0.00 8 1014.4
20260506142052 60 210 3.0 3.0 0.00 0.00 0.00 8 1014.4
20260506141052 59 219 2.0 2.0 0.00 0.00 0.00 8 1014.3
20260506140052 59 228 2.0 2.0 0.00 0.00 0.00 8 1014.4
20260506135052 59 231 1.0 1.0 0.00 0.00 0.00 8 1014.4
20260506134052 59 0 0.0 2.0 0.00 0.00 0.00 8 1014.5
20260506133052 59 201 3.0 8.0 0.00 0.00 0.00 8 1014.6
20260506132052 59 238 2.0 2.0 0.00 0.00 0.00 8 1014.6
20260506131052 59 248 1.0 2.0 0.00 0.00 0.00 8 1014.8
20260506130052 58 289 3.0 4.0 0.00 0.00 0.00 8 1014.9
20260506125052 58 0 0.0 0.0 0.00 0.00 0.00 8 1015.0
20260506124052 58 0 0.0 0.0 0.00 0.00 0.00 8 1015.0
20260506123052 59 0 0.0 0.0 0.00 0.00 0.00 8 1015.3
20260506122052 59 0 0.0 0.0 0.00 0.00 0.00 8 1015.4
20260506121051 60 304 1.0 2.0 0.00 0.00 0.00 8 1015.6
20260506120050 60 0 0.0 0.0 0.00 0.00 0.00 8 1015.7
20260506115050 61 0 0.0 0.0 0.00 0.00 0.00 8 1015.9
20260506114050 61 0 0.0 0.0 0.00 0.00 0.00 8 1015.9
20260506113049 61 0 0.0 0.0 0.00 0.00 0.00 8 1015.9
20260506112049 61 304 2.0 2.0 0.00 0.00 0.00 8 1016.1
20260506111049 61 304 1.0 3.0 0.00 0.00 0.00 8 1016.2
20260506110049 61 305 2.0 3.0 0.00 0.00 0.00 8 1016.2
20260506105049 61 306 2.0 3.0 0.00 0.00 0.00 8 1016.2
20260506104049 61 307 2.0 4.0 0.00 0.00 0.00 8 1016.2
20260506103049 62 308 3.0 4.0 0.00 0.00 0.00 8 1016.1
20260506102049 62 310 2.0 3.0 0.00 0.00 0.00 8 1016.2
20260506101049 62 317 2.0 3.0 0.00 0.00 0.00 8 1016.3
20260506100049 63 320 2.0 4.0 0.00 0.00 0.00 8 1016.3
20260506095049 63 333 3.0 3.0 0.00 0.00 0.00 8 1016.2
20260506094049 63 339 1.0 4.0 0.00 0.00 0.00 8 1016.2
20260506093048 63 343 4.0 4.0 0.00 0.00 0.00 8 1016.3
20260506092048 63 11 2.0 2.0 0.00 0.00 0.00 8 1016.4
20260506091048 63 0 0.0 0.0 0.00 0.00 0.00 8 1016.3
20260506090048 63 0 0.0 0.0 0.00 0.00 0.00 8 1016.4
20260506085048 63 0 0.0 0.0 0.00 0.00 0.00 8 1016.4
20260506084048 63 0 0.0 0.0 0.00 0.00 0.00 8 1016.4
20260506083048 63 0 0.0 0.0 0.00 0.00 0.00 8 1016.4
20260506082048 63 0 0.0 0.0 0.00 0.00 0.00 8 1016.4
20260506081048 62 0 0.0 0.0 0.00 0.00 0.00 8 1016.3
20260506073048 63 0 0.0 0.0 0.00 0.00 0.00 8 1016.3
20260506072048 63 0 0.0 0.0 0.00 0.00 0.00 8 1016.2
20260506071048 63 0 0.0 0.0 0.00 0.00 0.00 8 1016.2
20260506062048 65 0 0.0 1.0 0.00 0.00 0.00 7 1016.5
20260506061048 66 116 1.0 2.0 0.00 0.00 0.00 7 1016.5
20260506051048 68 74 2.0 4.0 0.00 0.00 0.00 7 1016.7
20260506045047 68 120 2.0 3.0 0.00 0.00 0.00 7 1017.1
20260506044047 68 118 4.0 5.0 0.00 0.00 0.00 6 1017.1
20260506043047 69 77 2.0 6.0 0.00 0.00 0.00 6 1017.1
20260506042047 69 122 2.0 4.0 0.00 0.00 0.00 6 1017.1
20260506041047 70 102 7.0 8.0 0.00 0.00 0.00 6 1017.1
20260506040047 69 105 1.0 4.0 0.00 0.00 0.00 6 1017.2
20260506035047 70 108 5.0 5.0 0.00 0.00 0.00 6 1017.4
20260506034047 70 102 4.0 7.0 0.00 0.00 0.00 6 1017.4
20260506033047 69 27 3.0 4.0 0.00 0.00 0.00 6 1017.5
20260506032047 70 122 5.0 5.0 0.00 0.00 0.00 6 1017.6
20260506031047 70 127 2.0 3.0 0.00 0.00 0.00 6 1017.8
20260506030047 69 0 0.0 3.0 0.00 0.00 0.00 6 1018.0
20260506025047 69 175 2.0 4.0 0.00 0.00 0.00 6 1018.2
20260506024047 69 158 2.0 4.0 0.00 0.00 0.00 6 1018.5
20260506023046 68 167 4.0 4.0 0.00 0.00 0.00 6 1018.6
20260506022046 69 162 1.0 4.0 0.00 0.00 0.00 6 1018.7
20260506021046 68 195 3.0 3.0 0.00 0.00 0.00 6 1018.8
20260506020046 67 0 0.0 1.0 0.00 0.00 0.00 6 1019.2
20260506015046 67 210 3.0 4.0 0.00 0.00 0.00 6 1019.4
20260506014046 68 207 2.0 5.0 0.00 0.00 0.00 6 1019.5
20260506013046 68 218 2.0 4.0 0.00 0.00 0.00 6 1019.6
20260506012046 68 224 3.0 4.0 0.00 0.00 0.00 6 1019.8
20260506011046 67 241 3.0 3.0 0.00 0.00 0.00 6 1019.9
20260506010046 66 269 2.0 5.0 0.00 0.00 0.00 6 1019.9
20260506005046 64 0 0.0 5.0 0.00 0.00 0.00 6 1020.1
20260506004046 64 249 4.0 9.0 0.00 0.00 0.00 6 1020.2
20260506003046 64 252 3.0 4.0 0.00 0.00 0.00 6 1020.4
20260506002046 63 262 4.0 9.0 0.00 0.00 0.00 6 1020.3
20260506001046 63 249 5.0 9.0 0.00 0.00 0.00 6 1020.4
20260506000046 63 264 8.0 9.0 0.00 0.00 0.00 6 1020.5
20260505235046 63 247 9.0 9.0 0.00 0.00 0.00 6 1020.5
20260505234046 62 247 6.0 8.0 0.00 0.00 0.00 6 1020.6
20260505233046 62 255 8.0 12.0 0.00 0.00 0.00 6 1020.5
20260505232046 61 239 6.0 10.0 0.00 0.00 0.00 6 1020.4
20260505231046 61 254 4.0 11.0 0.00 0.00 0.00 6 1020.4
20260505230046 60 221 4.0 7.0 0.00 0.00 0.00 6 1020.4
20260505225046 59 259 5.0 9.0 0.00 0.00 0.00 6 1020.3
20260505224046 59 245 10.0 13.0 0.00 0.00 0.00 7 1020.4
20260505223046 58 248 6.0 11.0 0.00 0.00 0.00 7 1020.4
20260505222046 58 260 15.0 17.0 0.00 0.00 0.00 7 1020.5
20260505221046 57 244 10.0 14.0 0.00 0.00 0.00 7 1020.4
20260505220046 57 246 9.0 11.0 0.00 0.00 0.00 7 1020.4
20260505215046 57 230 11.0 15.0 0.00 0.00 0.00 7 1020.4
20260505214046 56 251 13.0 15.0 0.00 0.00 0.00 7 1020.5
20260505213046 55 245 9.0 10.0 0.00 0.00 0.00 7 1020.5
20260505212046 55 213 5.0 9.0 0.00 0.00 0.00 7 1020.4
20260505211046 55 256 13.0 17.0 0.00 0.00 0.00 7 1020.3
20260505210046 55 248 4.0 11.0 0.00 0.00 0.00 7 1020.3
20260505205046 55 237 6.0 8.0 0.00 0.00 0.00 7 1020.2
20260505204046 55 254 8.0 11.0 0.00 0.00 0.00 7 1020.2
20260505203046 55 250 6.0 13.0 0.00 0.00 0.00 7 1020.2